sat.trackr.live / text

‹ back to catalog

YUNHAI-2 02C

NORAD 59282 · 2024-052C

PAYLOAD ACTIVE UNKNOWN

§ Identity

Operator
Country
PRC
Launch date
2024-03-21
Launch site
JSC
Launch vehicle
Mass (kg)
RCS (m²)

External: N2YO · Heavens-Above · Gunter

§ Orbital elements

Epoch: 2026-09-22T21:21:13.148064Z

Period
100.84 min
Inclination
50.0090°
Eccentricity
0.0006597
Mean motion
14.27991559 rev/d
Perigee alt
793.7 km
Apogee alt
803.2 km
Semi-major
7,176.6 km
B*
6.9706e-5
RAAN
88.3868°
Arg perigee
143.7155°
Mean anomaly
216.4208°
Rev number
12,876

§ Raw data

YUNHAI-2 02C1 59282U 24052C   26265.88973551  .00000013  00000+0  69706-4 0  99912 59282  50.0090  88.3868 0006597 143.7155 216.4208 14.27991559128765

JSON: /api/v1/satellites/59282 · /tle

For live sub-satellite position, see the globe view (requires WebGL).

§ Visibility from observer

Set your observer location to see the next 7 days of passes ≥ 10°. The values pass through the URL so the page stays shareable.

No JS? Fill the form by hand. The geolocation button needs JavaScript.